カタログに戻る

COSMOS 2327

運用中軍事PO
NORAD 23773·PAYLOAD·🇷🇺 Russia

打ち上げ Jan 16, 1996 から Plesetsk Cosmodrome

Loading…

次のパス (今後24時間)

TLE

最新Source: Space-Track

元期: Sep 14, 2026, 17:16 UTC

1 23773U 96004A   26257.71946189  .00000044  00000-0  29694-4 0  9990
2 23773  82.9808  58.8826 0048059  10.4316   0.7124 13.74773675537938

AllMySatでCOSMOS 2327をリアルタイム追跡

Download on the App Store